Location: Unspecified
(0.0000°N, 0.0000°E)
Time: 07:42:59
(UTC+00:00)

Courier 1B Rocket - All Passes

Search period start: 09 December 2016 00:00
Search period end: 19 December 2016 00:00
Orbit: 921 x 1202 km, 28.3° (Epoch: 08 December)

Date Brightness Start Highest point End Pass type
(mag) Time Alt. Az. Time Alt. Az. Time Alt. Az.
09 Dec - 03:11:17 10° NNW 03:16:50 21° NNE 03:22:15 10° ENE visible
09 Dec - 05:03:32 10° NW 05:11:05 63° NNE 05:18:09 10° ESE visible
09 Dec - 06:58:03 10° W 07:04:47 39° SSW 07:11:07 10° SE daylight
09 Dec - 08:57:01 10° SW 08:58:56 11° SSW 09:00:48 10° S daylight
09 Dec - 14:42:48 10° S 14:45:35 13° SSE 14:48:24 10° SE daylight
09 Dec - 16:33:18 10° SW 16:39:26 48° SSE 16:45:54 10° ENE daylight
09 Dec - 18:26:38 10° WSW 18:32:57 47° NNW 18:39:45 10° NE visible
09 Dec - 20:23:19 10° NW 20:27:16 15° NNW 20:31:20 10° NNE visible
10 Dec - 02:11:01 10° NNW 02:15:12 15° NNE 02:19:20 10° NE visible
10 Dec - 04:02:30 10° NW 04:09:47 43° NNE 04:16:43 10° E visible
10 Dec - 05:56:11 10° WNW 06:03:37 59° SSW 06:10:33 10° SE daylight
10 Dec - 07:53:01 10° WSW 07:57:31 17° SSW 08:01:51 10° SSE daylight
10 Dec - 15:32:54 10° SSW 15:38:22 31° SSE 15:44:02 10° E daylight
10 Dec - 17:25:26 10° WSW 17:31:51 71° NNW 17:38:43 10° NE daylight
10 Dec - 19:20:47 10° WNW 19:25:47 21° NNW 19:31:01 10° NNE visible
11 Dec - 01:11:41 10° N 01:13:25 11° NNE 01:15:10 10° NNE night (unlit)
11 Dec - 03:01:41 10° NNW 03:08:22 31° NNE 03:14:53 10° E visible
11 Dec - 04:54:39 10° WNW 05:02:23 87° SSW 05:09:41 10° ESE visible
11 Dec - 06:50:12 10° W 06:56:12 26° SSW 07:01:54 10° SSE daylight
11 Dec - 14:32:47 10° SSW 14:37:15 20° SSE 14:41:47 10° ESE daylight
11 Dec - 16:24:30 10° SW 16:30:49 76° SSE 16:37:30 10° ENE daylight
11 Dec - 18:18:48 10° W 18:24:28 30° NNW 18:30:27 10° NNE visible
11 Dec - 20:18:50 10° NNW 20:19:07 10° NNW 20:19:24 10° NNW visible
12 Dec - 02:01:07 10° NNW 02:06:52 22° NNE 02:12:32 10° ENE visible
12 Dec - 03:53:22 10° NW 04:01:07 66° NNE 04:08:31 10° ESE visible
12 Dec - 05:47:55 10° W 05:54:56 39° SSW 06:01:34 10° SE daylight
12 Dec - 07:46:43 10° SW 07:49:13 12° SSW 07:51:40 10° S daylight
12 Dec - 13:33:12 10° S 13:36:01 13° SSE 13:38:49 10° SE daylight
12 Dec - 15:23:50 10° SW 15:29:50 48° SSE 15:36:03 10° ENE daylight
12 Dec - 17:17:15 10° W 17:23:18 44° NNW 17:29:42 10° NE daylight
12 Dec - 19:14:11 10° NW 19:17:30 14° NNW 19:20:56 10° N visible
13 Dec - 01:00:55 10° NNW 01:05:14 16° NNE 01:09:33 10° NE night (unlit)
13 Dec - 02:52:21 10° NW 02:59:46 45° NNE 03:07:00 10° E visible
13 Dec - 04:46:03 10° WNW 04:53:40 59° SSW 05:00:55 10° SE visible
13 Dec - 06:42:54 10° WSW 06:47:43 18° SSW 06:52:24 10° SSE daylight
13 Dec - 14:23:23 10° SSW 14:28:49 31° SSE 14:34:19 10° E daylight
13 Dec - 16:16:00 10° WSW 16:22:14 68° NNW 16:28:47 10° NE daylight
13 Dec - 18:11:32 10° WNW 18:16:05 20° NNW 18:20:49 10° NNE visible
14 Dec - 00:01:44 10° N 00:03:29 11° NNE 00:05:14 10° NNE night (unlit)
14 Dec - 01:51:36 10° NNW 01:58:21 32° NNE 02:05:05 10° E visible
14 Dec - 03:44:31 10° WNW 03:52:23 85° SSW 04:00:00 10° ESE visible
14 Dec - 05:40:04 10° W 05:46:19 27° SSW 05:52:20 10° SSE daylight
14 Dec - 13:23:10 10° SSW 13:27:42 20° SSE 13:32:13 10° ESE daylight
14 Dec - 15:15:02 10° SW 15:21:17 78° SSE 15:27:41 10° ENE daylight
14 Dec - 17:09:29 10° W 17:14:50 28° NNW 17:20:24 10° NNE daylight
15 Dec - 00:51:06 10° NNW 00:56:52 22° NNE 01:02:39 10° ENE night (unlit)
15 Dec - 02:43:17 10° NW 02:51:05 67° NNE 02:58:44 10° ESE visible
15 Dec - 04:37:48 10° W 04:44:59 40° SSW 04:51:54 10° SE visible
15 Dec - 06:36:25 10° SW 06:39:25 13° SSW 06:42:20 10° S daylight
15 Dec - 12:23:22 10° S 12:26:27 14° SSE 12:29:29 10° SE daylight
15 Dec - 14:14:16 10° SW 14:20:19 49° SSE 14:26:22 10° ENE daylight
15 Dec - 16:07:51 10° W 16:13:43 42° NNW 16:19:48 10° NE daylight
15 Dec - 18:05:11 10° NW 18:07:50 13° NNW 18:10:33 10° N daylight
15 Dec - 23:51:02 10° NNW 23:55:16 15° NNE 23:59:34 10° ENE night (unlit)
16 Dec - 01:42:20 10° NW 01:49:43 46° NNE 01:57:08 10° E visible
16 Dec - 03:35:58 10° WNW 03:43:39 58° SSW 03:51:09 10° SE visible
16 Dec - 05:32:45 10° WSW 05:37:51 19° SSW 05:42:48 10° SSE visible
16 Dec - 13:13:44 10° SSW 13:19:18 32° SSE 13:24:47 10° E daylight
16 Dec - 15:06:32 10° WSW 15:12:43 66° NNW 15:19:00 10° NE daylight
16 Dec - 17:02:17 10° WNW 17:06:28 18° NNW 17:10:45 10° NNE daylight
16 Dec - 22:52:16 10° N 22:53:35 10° NNE 22:54:54 10° NNE night (unlit)
17 Dec - 00:41:39 10° NNW 00:48:19 32° NNE 00:55:08 10° E night (unlit)
17 Dec - 02:34:28 10° WNW 02:42:19 84° SSW 02:50:07 10° ESE visible
17 Dec - 04:29:58 10° W 04:36:22 27° SSW 04:42:37 10° SSE visible
17 Dec - 12:13:23 10° SSW 12:18:09 21° SSE 12:22:49 10° ESE daylight
17 Dec - 14:05:28 10° WSW 14:11:46 80° SSE 14:18:02 10° ENE daylight
17 Dec - 16:00:07 10° W 16:05:15 27° NNW 16:10:30 10° NNE daylight
17 Dec - 23:41:16 10° NNW 23:46:52 22° NNE 23:52:38 10° ENE night (unlit)
18 Dec - 01:33:19 10° NW 01:41:00 69° NNE 01:48:48 10° ESE visible
18 Dec - 03:27:45 10° W 03:34:57 39° SSW 03:42:04 10° SE visible
18 Dec - 05:26:11 10° SW 05:29:32 13° SSW 05:32:49 10° S visible
18 Dec - 11:13:20 10° S 11:16:52 15° SSE 11:20:18 10° SE daylight
18 Dec - 13:04:36 10° SW 13:10:48 51° SSE 13:16:50 10° ENE daylight
18 Dec - 14:58:22 10° W 15:04:11 40° NNW 15:10:03 10° NE daylight
18 Dec - 16:56:15 10° NW 16:58:13 11° NNW 17:00:13 10° N daylight
18 Dec - 22:41:21 10° N 22:45:21 15° NNE 22:49:27 10° ENE night (unlit)
